Time,TemperatureF,DewpointF,PressureIn,WindDirection,WindDirectionDegrees,WindSpeedMPH,WindSpeedGustMPH,Humidity,HourlyPrecipIn,Conditions,Clouds,dailyrainin,SoftwareType,DateUTC
2013-10-01 00:09:00,60.8,57.0,29.86,ESE,116,1.0,6.0,86,0.00,,,0.00,weatherlink.com 1.10,2013-10-01 07:09:00,
2013-10-01 00:24:00,60.5,57.0,29.86,ESE,116,1.0,2.0,87,0.00,,,0.00,weatherlink.com 1.10,2013-10-01 07:24:00,
2013-10-01 00:40:00,60.0,56.0,29.86,ESE,116,1.0,2.0,87,0.00,,,0.00,weatherlink.com 1.10,2013-10-01 07:40:00,
2013-10-01 00:55:00,59.8,56.0,29.86,East,97,2.0,3.0,87,0.00,,,0.00,weatherlink.com 1.10,2013-10-01 07:55:00,
2013-10-01 01:10:00,59.8,56.0,29.87,East,97,0.0,2.0,86,0.00,,,0.00,weatherlink.com 1.10,2013-10-01 08:10:00,
2013-10-01 01:25:00,59.0,55.0,29.87,East,97,1.0,2.0,87,0.00,,,0.00,weatherlink.com 1.10,2013-10-01 08:25:00,
2013-10-01 01:40:00,58.5,55.0,29.87,East,97,1.0,2.0,88,0.00,,,0.00,weatherlink.com 1.10,2013-10-01 08:40:00,
2013-10-01 02:10:00,57.9,54.0,29.87,East,97,1.0,2.0,88,0.00,,,0.00,weatherlink.com 1.10,2013-10-01 09:10:00,
2013-10-01 02:25:00,57.6,54.0,29.88,East,97,0.0,2.0,88,0.00,,,0.00,weatherlink.com 1.10,2013-10-01 09:25:00,
2013-10-01 02:40:00,57.1,54.0,29.87,East,97,0.0,2.0,88,0.00,,,0.00,weatherlink.com 1.10,2013-10-01 09:40:00,
2013-10-01 02:55:00,56.6,53.0,29.87,East,97,0.0,2.0,88,0.00,,,0.00,weatherlink.com 1.10,2013-10-01 09:55:00,
2013-10-01 03:10:00,56.3,53.0,29.86,East,97,1.0,2.0,88,0.00,,,0.00,weatherlink.com 1.10,2013-10-01 10:10:00,
2013-10-01 03:25:00,56.4,53.0,29.86,ENE,74,0.0,2.0,88,0.00,,,0.00,weatherlink.com 1.10,2013-10-01 10:25:00,
2013-10-01 03:40:00,56.0,53.0,29.86,ENE,74,0.0,2.0,88,0.00,,,0.00,weatherlink.com 1.10,2013-10-01 10:40:00,
2013-10-01 03:55:00,55.5,52.0,29.86,ENE,74,0.0,2.0,89,0.00,,,0.00,weatherlink.com 1.10,2013-10-01 10:55:00,
2013-10-01 04:10:00,55.3,52.0,29.86,ENE,74,0.0,1.0,89,0.00,,,0.00,weatherlink.com 1.10,2013-10-01 11:10:00,
2013-10-01 04:25:00,55.0,52.0,29.87,ENE,74,0.0,2.0,89,0.00,,,0.00,weatherlink.com 1.10,2013-10-01 11:25:00,
2013-10-01 04:40:00,55.0,52.0,29.87,ENE,74,0.0,1.0,89,0.00,,,0.00,weatherlink.com 1.10,2013-10-01 11:40:00,
2013-10-01 04:55:00,54.9,52.0,29.87,ENE,74,0.0,1.0,90,0.00,,,0.00,weatherlink.com 1.10,2013-10-01 11:55:00,
2013-10-01 05:10:00,55.1,52.0,29.87,ENE,74,0.0,0.0,90,0.00,,,0.00,weatherlink.com 1.10,2013-10-01 12:10:00,
2013-10-01 05:25:00,54.8,52.0,29.88,ENE,74,0.0,1.0,89,0.00,,,0.00,weatherlink.com 1.10,2013-10-01 12:25:00,
2013-10-01 05:40:00,54.9,52.0,29.88,ENE,74,0.0,1.0,90,0.00,,,0.00,weatherlink.com 1.10,2013-10-01 12:40:00,
2013-10-01 05:54:00,55.0,52.0,29.88,ENE,74,0.0,1.0,89,0.00,,,0.00,weatherlink.com 1.10,2013-10-01 12:54:00,
2013-10-01 06:09:00,54.6,52.0,29.89,ENE,74,0.0,1.0,90,0.00,,,0.00,weatherlink.com 1.10,2013-10-01 13:09:00,
2013-10-01 06:25:00,54.6,52.0,29.89,ENE,74,0.0,1.0,90,0.00,,,0.00,weatherlink.com 1.10,2013-10-01 13:25:00,
2013-10-01 06:40:00,54.6,52.0,29.89,ENE,74,0.0,1.0,90,0.00,,,0.00,weatherlink.com 1.10,2013-10-01 13:40:00,
2013-10-01 06:55:00,54.8,52.0,29.89,ENE,74,0.0,2.0,91,0.00,,,0.00,weatherlink.com 1.10,2013-10-01 13:55:00,
2013-10-01 07:10:00,55.0,53.0,29.90,ENE,74,1.0,2.0,91,0.00,,,0.00,weatherlink.com 1.10,2013-10-01 14:10:00,
2013-10-01 07:25:00,55.7,53.0,29.90,ENE,74,1.0,2.0,91,0.00,,,0.00,weatherlink.com 1.10,2013-10-01 14:25:00,
2013-10-01 07:40:00,57.2,54.0,29.91,ENE,74,0.0,2.0,88,0.00,,,0.00,weatherlink.com 1.10,2013-10-01 14:40:00,
2013-10-01 07:54:00,59.4,55.0,29.91,ENE,73,0.0,2.0,84,0.00,,,0.00,weatherlink.com 1.10,2013-10-01 14:54:00,
2013-10-01 08:09:00,61.8,56.0,29.91,ENE,73,0.0,1.0,81,0.00,,,0.00,weatherlink.com 1.10,2013-10-01 15:09:00,
2013-10-01 08:25:00,62.6,56.0,29.91,ENE,76,1.0,2.0,78,0.00,,,0.00,weatherlink.com 1.10,2013-10-01 15:25:00,
2013-10-01 08:40:00,64.6,57.0,29.92,South,184,1.0,3.0,76,0.00,,,0.00,weatherlink.com 1.10,2013-10-01 15:40:00,
2013-10-01 08:55:00,65.4,58.0,29.92,SSW,205,1.0,4.0,76,0.00,,,0.00,weatherlink.com 1.10,2013-10-01 15:55:00,
2013-10-01 09:11:00,66.4,59.0,29.92,SSW,199,2.0,5.0,76,0.00,,,0.00,weatherlink.com 1.10,2013-10-01 16:11:00,
2013-10-01 09:25:00,66.8,59.0,29.92,SW,217,2.0,5.0,75,0.00,,,0.00,weatherlink.com 1.10,2013-10-01 16:25:00,
2013-10-01 09:41:00,67.7,58.0,29.93,SSW,207,3.0,5.0,72,0.00,,,0.00,weatherlink.com 1.10,2013-10-01 16:41:00,
2013-10-01 09:55:00,68.7,59.0,29.93,SW,229,4.0,6.0,72,0.00,,,0.00,weatherlink.com 1.10,2013-10-01 16:55:00,
2013-10-01 10:10:00,69.7,60.0,29.93,SW,227,3.0,7.0,70,0.00,,,0.00,weatherlink.com 1.10,2013-10-01 17:10:00,
2013-10-01 10:25:00,70.2,60.0,29.92,WSW,243,3.0,6.0,70,0.00,,,0.00,weatherlink.com 1.10,2013-10-01 17:25:00,
2013-10-01 10:40:00,71.1,60.0,29.93,West,277,3.0,5.0,69,0.00,,,0.00,weatherlink.com 1.10,2013-10-01 17:40:00,
2013-10-01 10:55:00,70.4,61.0,29.93,WSW,244,3.0,7.0,71,0.00,,,0.00,weatherlink.com 1.10,2013-10-01 17:55:00,
2013-10-01 11:10:00,70.7,60.0,29.93,SW,235,5.0,9.0,69,0.00,,,0.00,weatherlink.com 1.10,2013-10-01 18:10:00,
2013-10-01 11:25:00,71.8,61.0,29.93,WSW,250,4.0,8.0,68,0.00,,,0.00,weatherlink.com 1.10,2013-10-01 18:25:00,
2013-10-01 11:40:00,72.1,61.0,29.93,West,259,2.0,8.0,69,0.00,,,0.00,weatherlink.com 1.10,2013-10-01 18:40:00,
2013-10-01 11:55:00,71.7,61.0,29.92,SSW,205,3.0,9.0,68,0.00,,,0.00,weatherlink.com 1.10,2013-10-01 18:55:00,
2013-10-01 12:25:00,71.3,60.0,29.92,NW,306,4.0,8.0,68,0.00,,,0.00,weatherlink.com 1.10,2013-10-01 19:25:00,
2013-10-01 12:40:00,71.4,61.0,29.92,SSW,205,6.0,9.0,69,0.00,,,0.00,weatherlink.com 1.10,2013-10-01 19:40:00,
2013-10-01 12:55:00,71.6,60.0,29.92,SW,218,6.0,10.0,68,0.00,,,0.00,weatherlink.com 1.10,2013-10-01 19:55:00,
2013-10-01 13:10:00,72.4,60.0,29.91,SW,223,3.0,9.0,66,0.00,,,0.00,weatherlink.com 1.10,2013-10-01 20:10:00,
2013-10-01 13:25:00,74.4,61.0,29.91,WSW,256,2.0,6.0,63,0.00,,,0.00,weatherlink.com 1.10,2013-10-01 20:25:00,
2013-10-01 13:40:00,72.9,61.0,29.90,SW,222,2.0,8.0,67,0.00,,,0.00,weatherlink.com 1.10,2013-10-01 20:40:00,
2013-10-01 13:56:00,73.2,62.0,29.90,SW,232,4.0,9.0,67,0.00,,,0.00,weatherlink.com 1.10,2013-10-01 20:56:00,
2013-10-01 14:11:00,72.9,61.0,29.89,SSW,211,1.0,8.0,67,0.00,,,0.00,weatherlink.com 1.10,2013-10-01 21:11:00,
2013-10-01 14:26:00,73.6,61.0,29.89,SW,223,7.0,10.0,64,0.00,,,0.00,weatherlink.com 1.10,2013-10-01 21:26:00,
2013-10-01 14:41:00,73.4,61.0,29.89,West,268,3.0,10.0,65,0.00,,,0.00,weatherlink.com 1.10,2013-10-01 21:41:00,
2013-10-01 14:56:00,73.0,60.0,29.88,WNW,300,3.0,11.0,63,0.00,,,0.00,weatherlink.com 1.10,2013-10-01 21:56:00,
2013-10-01 15:11:00,73.3,59.0,29.88,West,275,2.0,6.0,62,0.00,,,0.00,weatherlink.com 1.10,2013-10-01 22:11:00,
2013-10-01 15:26:00,73.3,60.0,29.88,SW,230,3.0,7.0,64,0.00,,,0.00,weatherlink.com 1.10,2013-10-01 22:26:00,
2013-10-01 15:40:00,71.9,60.0,29.88,West,259,2.0,7.0,66,0.00,,,0.00,weatherlink.com 1.10,2013-10-01 22:40:00,
2013-10-01 15:55:00,70.9,60.0,29.87,WSW,258,1.0,9.0,68,0.00,,,0.00,weatherlink.com 1.10,2013-10-01 22:55:00,
2013-10-01 16:11:00,71.3,60.0,29.87,SW,230,4.0,8.0,67,0.00,,,0.00,weatherlink.com 1.10,2013-10-01 23:11:00,
2013-10-01 16:26:00,69.6,60.0,29.87,SSW,201,2.0,8.0,71,0.00,,,0.00,weatherlink.com 1.10,2013-10-01 23:26:00,
2013-10-01 16:41:00,69.6,60.0,29.86,WSW,250,1.0,8.0,72,0.00,,,0.00,weatherlink.com 1.10,2013-10-01 23:41:00,
2013-10-01 16:56:00,68.5,60.0,29.86,SW,227,2.0,7.0,74,0.00,,,0.00,weatherlink.com 1.10,2013-10-01 23:56:00,
2013-10-01 17:11:00,67.6,60.0,29.86,SW,221,2.0,7.0,76,0.00,,,0.00,weatherlink.com 1.10,2013-10-02 00:11:00,
2013-10-01 17:26:00,66.2,59.0,29.86,SSW,207,3.0,7.0,78,0.00,,,0.00,weatherlink.com 1.10,2013-10-02 00:26:00,
2013-10-01 17:40:00,65.8,59.0,29.87,SW,217,2.0,6.0,79,0.00,,,0.00,weatherlink.com 1.10,2013-10-02 00:40:00,
2013-10-01 17:56:00,65.4,59.0,29.87,WSW,251,1.0,4.0,80,0.00,,,0.00,weatherlink.com 1.10,2013-10-02 00:56:00,
2013-10-01 18:11:00,64.8,59.0,29.86,SW,236,3.0,5.0,81,0.00,,,0.00,weatherlink.com 1.10,2013-10-02 01:11:00,
2013-10-01 18:26:00,64.1,59.0,29.86,SW,221,1.0,4.0,82,0.00,,,0.00,weatherlink.com 1.10,2013-10-02 01:26:00,
2013-10-01 18:41:00,64.1,59.0,29.86,SW,223,0.0,3.0,82,0.00,,,0.00,weatherlink.com 1.10,2013-10-02 01:41:00,
2013-10-01 18:55:00,63.2,58.0,29.86,SW,224,0.0,3.0,84,0.00,,,0.00,weatherlink.com 1.10,2013-10-02 01:55:00,
2013-10-01 19:10:00,62.6,58.0,29.86,SW,224,0.0,2.0,85,0.00,,,0.00,weatherlink.com 1.10,2013-10-02 02:10:00,
2013-10-01 19:25:00,62.2,58.0,29.86,South,190,2.0,2.0,86,0.00,,,0.00,weatherlink.com 1.10,2013-10-02 02:25:00,
2013-10-01 19:41:00,62.2,58.0,29.86,SSW,207,1.0,3.0,86,0.00,,,0.00,weatherlink.com 1.10,2013-10-02 02:41:00,
2013-10-01 19:56:00,62.4,58.0,29.87,SSW,207,0.0,2.0,85,0.00,,,0.00,weatherlink.com 1.10,2013-10-02 02:56:00,
2013-10-01 20:11:00,62.1,58.0,29.87,SSW,207,0.0,1.0,86,0.00,,,0.00,weatherlink.com 1.10,2013-10-02 03:11:00,
2013-10-01 20:26:00,61.7,58.0,29.87,SSW,207,0.0,1.0,87,0.00,,,0.00,weatherlink.com 1.10,2013-10-02 03:26:00,
2013-10-01 20:41:00,61.8,58.0,29.88,SSW,207,0.0,1.0,86,0.00,,,0.00,weatherlink.com 1.10,2013-10-02 03:41:00,
2013-10-01 20:56:00,61.4,57.0,29.89,SSW,207,0.0,0.0,86,0.00,,,0.00,weatherlink.com 1.10,2013-10-02 03:56:00,
2013-10-01 21:10:00,61.3,57.0,29.88,SSW,207,1.0,1.0,87,0.00,,,0.00,weatherlink.com 1.10,2013-10-02 04:10:00,
2013-10-01 21:25:00,60.9,57.0,29.89,SSW,207,0.0,1.0,86,0.00,,,0.00,weatherlink.com 1.10,2013-10-02 04:25:00,
2013-10-01 21:40:00,61.0,57.0,29.89,SSW,207,0.0,0.0,85,0.00,,,0.00,weatherlink.com 1.10,2013-10-02 04:40:00,
2013-10-01 21:55:00,60.3,56.0,29.89,SW,230,1.0,2.0,84,0.00,,,0.00,weatherlink.com 1.10,2013-10-02 04:55:00,
2013-10-01 22:11:00,60.0,56.0,29.89,SW,230,0.0,2.0,85,0.00,,,0.00,weatherlink.com 1.10,2013-10-02 05:11:00,
2013-10-01 22:26:00,60.2,55.0,29.89,SW,230,0.0,1.0,84,0.00,,,0.00,weatherlink.com 1.10,2013-10-02 05:26:00,
2013-10-01 22:41:00,59.8,55.0,29.90,SW,230,0.0,1.0,85,0.00,,,0.00,weatherlink.com 1.10,2013-10-02 05:41:00,
2013-10-01 22:56:00,59.6,55.0,29.90,SW,230,1.0,2.0,85,0.00,,,0.00,weatherlink.com 1.10,2013-10-02 05:56:00,
2013-10-01 23:11:00,59.4,55.0,29.89,SW,230,0.0,2.0,84,0.00,,,0.00,weatherlink.com 1.10,2013-10-02 06:11:00,
2013-10-01 23:26:00,59.4,55.0,29.89,SW,230,0.0,0.0,84,0.00,,,0.00,weatherlink.com 1.10,2013-10-02 06:26:00,
2013-10-01 23:41:00,58.9,55.0,29.89,SW,230,0.0,1.0,86,0.00,,,0.00,weatherlink.com 1.10,2013-10-02 06:41:00,
2013-10-01 23:56:00,58.6,55.0,29.90,SW,230,1.0,2.0,86,0.00,,,0.00,weatherlink.com 1.10,2013-10-02 06:56:00,